User: anonymous   Login
Location: Lake Runnemede Observatory
(43.4843°N, 72.3851°W)
Time: 13:20:26
(UTC-04:00)
Language:

SPOT 5 - Orbit

View from above orbital plane
View from above orbital plane
View from above satellite
View from above satellite

Ground track
Ground track

The orbit data is extracted from the following two-line orbital elements,

1 27421U 02021A   16209.12440824  .00000007  00000-0  13590-4 0  9993
2 27421  98.4530 265.2283 0134200 242.9020 115.8424 14.51807717738503
Epoch (UTC): 27 July 2016 02:59:08
Eccentricity: 0.0134200
inclination: 98.4530°
perigee height: 624 km
apogee height: 815 km
right ascension of ascending node: 265.2283°
argument of perigee: 242.9020°
revolutions per day: 14.51807717
mean anomaly at epoch: 115.8424°
orbit number at epoch: 73850

The dashed part of the orbit path shows where the satellite is in the earth's shadow,  

DLR